Location: Austin
(30.3000°N, 97.7500°W)
Time: 00:57:09
(UTC-05:00)

Cosmos 1825 Rocket - Pass Details

Date: 15 May 2024
Orbit: 602 x 626 km, 82.5° (Epoch: 19 May)

Event Time Altitude Azimuth Distance (km) Brightness Sun altitude
Rises 21:16:44 0° 351° (N) 2,912 7.6 -12.0°
Reaches altitude 10° 21:18:59 10° 349° (N) 2,001 6.8 -12.5°
Maximum altitude 21:23:24 72° 266° (W) 656 3.8 -13.3°
Drops below altitude 10° 21:27:46 10° 182° (S) 1,980 5.9 -14.1°
Enters shadow 21:28:56 - 181° (S) 2,449 6.3 -14.3°
